Regional Weather Roundup
Issued by NWS

Home | Current Version | Previous Version | Graphics & Text | Print | Product List | Glossary On
Versions: 1 2 3 4 5 6 7 8 9 10 11 12 13 14 15 16 17 18 19 20 21 22 23 24 25 26 27 28 29 30 31 32 33 34 35 36 37 38 39 40 41 42 43 44 45 46 47 48 49 50
000
ASUS43 KIND 251009
RWRIN

WEATHER ROUNDUP FOR INDIANA
NATIONAL WEATHER SERVICE INDIANAPOLIS IN
600 AM EDT TUE APR 25 2017

NOTE: "FAIR" INDICATES FEW OR NO CLOUDS BELOW 12,000 FEET WITH NO
SIGNIFICANT WEATHER AND/OR OBSTRUCTIONS TO VISIBILITY.

* - STATION DOES NOT REPORT WEATHER SUCH AS PRECIPITATION OR FOG.

+ - STATION NOT QUALITY CONTROLLED BY THE NATIONAL WEATHER SERVICE.
    USE DATA WITH CAUTION...ESPECIALLY DEWPOINT AND RELATIVE
    HUMIDITY OBSERVATIONS.

INZ001>003-010>013-019-020-251100-
NORTHWEST INDIANA

CITY           SKY/WX    TMP DP  RH WIND       PRES   REMARKS
GARY /AIRPORT/ CLEAR     57  46  67 SE10      29.74S
KNOX *+        CLEAR     52  32  46 SE9       29.76S
LA PORTE +     PTCLDY    46  43  86 E6        29.78S
MICHIGAN CITY+ CLEAR     54  45  71 SE5       29.77S
MONTICELLO +   CLEAR     54  50  84 SE3       29.75S
RENSSELAER +   CLEAR     54  50  87 SE8       29.75S
VALPARAISO     CLEAR     49  44  83 NE6       29.77R

$$

LMZ046-743>745-251100-
SOUTHERN LAKE MICHIGAN

STATION/POSITION TIME  TEMP    WIND        PRES    WAVE
                       AIR SEA DIR/SP/G            HT
                 (UTC) (F)     (DEG/KT/KT) (MB)    (FT)
BURNS HARBOR     0940   58     150/  9/ 17 1008.1S
MICHIGAN CITY    0940   56     130/ 12/ 14   N/A

$$

INZ004-005-014>016-021>024-251100-
NORTH CENTRAL INDIANA

CITY           SKY/WX    TMP DP  RH WIND       PRES   REMARKS
GOSHEN         CLEAR     52  45  77 SE8       29.79S
LOGANSPORT +   CLEAR     46  46 100 E6        29.78S
PERU/GRISSOM   CLEAR     53  53 100 E8        29.76S
ROCHESTER +    CLEAR     54  50  87 SE3       29.79S
SOUTH BEND     CLEAR     50  44  80 SE6       29.79F
WARSAW +       CLEAR     50  46  87 SE3       29.79F

$$

INZ006>009-017-018-025>027-251100-
NORTHEAST INDIANA

CITY           SKY/WX    TMP DP  RH WIND       PRES   REMARKS
ANGOLA *+      CLEAR     52  46  82 SE6       29.82S
AUBURN +       PTCLDY    50  45  81 E5        29.83S
FORT WAYNE     MOCLDY    54  47  77 SE12      29.81S
HUNTINGTON +   CLOUDY    55  49  81 SE5       29.80S
KENDALLVILLE + CLEAR     49  46  91 SE7       29.82R

$$

INZ028-029-035-036-043>045-051>053-251100-
WEST CENTRAL INDIANA

CITY           SKY/WX    TMP DP  RH WIND       PRES   REMARKS
CRAWFORDSVL +  CLEAR     50  50 100 SE6       29.76R
GREENCASTLE +  CLEAR     50  50 100 CALM      29.77R
LAFAYETTE      CLEAR     52  49  89 E6        29.76R
TERRE HAUTE    CLEAR     51  48  89 SE3       29.76R

$$

INZ030>032-037>040-046>048-054>057-064-065-251100-
CENTRAL INDIANA

CITY           SKY/WX    TMP DP  RH WIND       PRES   REMARKS
CP ATTERBURY + CLEAR     46  46 100 CALM      29.78S
FISHERS *+     CLEAR     52  52 100 CALM      29.77S
FRANKFORT +    CLEAR     55  51  87 SE8       29.77F
GREENWOOD *+   CLEAR     56  51  83 CALM      29.78S
INDIANAPOLIS   PTCLDY    54  50  86 E6        29.77S
-EAGLE CREEK   CLEAR     53  49  86 SE3       29.76F
KOKOMO +       CLEAR     53  50  89 SE9       29.78S
MARION +       CLEAR     54  50  87 SE6       29.79F
MT COMFORT *+  CLEAR     54  50  87 SE3       29.78F
SHELBYVILLE    CLEAR     56  49  77 SE3       29.78R
ZIONSVILLE +   CLEAR     49  48  94 SE5       29.78S

$$

INZ033-034-041-042-049-050-058-059-251100-
EAST CENTRAL INDIANA

CITY           SKY/WX    TMP DP  RH WIND       PRES   REMARKS
MUNCIE         PTCLDY    56  49  77 SE7       29.79S
RICHMOND +     CLEAR     46  45  93 E9        29.82S

$$

INZ060-061-067>069-081>083-085>088-251100-
SOUTHWEST INDIANA

CITY           SKY/WX    TMP DP  RH WIND       PRES   REMARKS
EVANSVILLE     CLEAR     53  50  89 CALM      29.75S
HUNTINGBURG *+ CLEAR     55  52  89 CALM      29.76S
WASHINGTON +   CLEAR     52  50  93 MISG      29.76R

$$

INZ062-063-066-070>080-084-089>092-251100-
SOUTH CENTRAL AND SOUTHEAST INDIANA

CITY           SKY/WX    TMP DP  RH WIND       PRES   REMARKS
BEDFORD +      CLEAR     54  48  82 E3        29.76S
BLOOMINGTON      N/A    N/A N/A N/A MISG      29.76S
MADISON *+     CLEAR     54  52  94 E5        29.80S
NORTH VERNON + MOCLDY   N/A N/A N/A E3        29.79R
SEYMOUR +      CLEAR     52  50  93 CALM      29.78S

$$




USA.gov is the U.S. government's official web portal to all federal, state and local government web resources and services.